Location: Zagreb
(45.8000°N, 16.0000°E)
Time: 18:16:01
(UTC+02:00)

SR - Pass Details

Date: 20 August 2020
Orbit: 583 x 873 km, 66.7° (Epoch: 28 September)

Event Time Altitude Azimuth Distance (km) Brightness Sun altitude
Rises 19:10:40 0° 182° (S) 2,956 ? 6.7°
Reaches altitude 10° 19:13:16 10° 170° (S) 2,007 ? 6.2°
Maximum altitude 19:17:02 27° 113° (ESE) 1,179 ? 5.6°
Drops below altitude 10° 19:20:41 10° 55° (NE) 1,931 ? 5.0°
Sets 19:23:07 0° 43° (NE) 2,821 ? 4.6°
